Total_Precipitation_Accumulation
1.78 1.35 0.83 0.45 0.36 0.33 0.27 0.35 0.49 0.54 0.54 0.56 0.59 0.46 0.43 0.37 0.33 0.34 0.34 0.37 0.44 0.57 0.70 0.83 0.96 1.12 1.24 1.22 1.26 1.37 1.42 1.51 1.58 1.57 1.47 1.34 1.22 1.16 1.08 0.93 0.86 0.76 0.69 0.68
1.52 0.97 0.44 0.30 0.32 0.31 0.29 0.32 0.42 0.47 0.48 0.55 0.55 0.47 0.42 0.42 0.38 0.34 0.33 0.34 0.43 0.55 0.65 0.76 0.90 1.01 1.16 1.24 1.27 1.40 1.46 1.50 1.51 1.54 1.59 1.53 1.54 1.45 1.35 1.25 1.14 1.02 0.93 0.89
1.16 0.65 0.37 0.39 0.42 0.35 0.28 0.29 0.34 0.40 0.45 0.54 0.56 0.54 0.42 0.39 0.39 0.32 0.30 0.33 0.41 0.57 0.64 0.72 0.84 0.87 0.96 1.14 1.34 1.41 1.46 1.50 1.53 1.72 2.05 1.99 1.87 1.74 1.61 1.47 1.36 1.25 1.18 1.15
1.05 0.59 0.45 0.45 0.39 0.34 0.30 0.21 0.28 0.36 0.50 0.57 0.58 0.73 0.47 0.45 0.44 0.36 0.32 0.33 0.42 0.52 0.56 0.63 0.80 0.85 0.87 0.98 1.23 1.50 1.57 1.64 1.75 1.92 2.11 2.12 1.87 1.65 1.54 1.52 1.52 1.48 1.35 1.30
1.00 0.68 0.55 0.51 0.38 0.33 0.32 0.23 0.29 0.36 0.45 0.53 0.45 0.58 0.53 0.46 0.47 0.45 0.42 0.43 0.49 0.54 0.57 0.62 0.79 0.88 0.87 0.92 1.08 1.34 1.56 1.62 1.79 1.93 2.01 2.12 1.91 1.64 1.60 1.58 1.52 1.49 1.40 1.28
0.70 0.59 0.62 0.52 0.36 0.35 0.35 0.33 0.38 0.45 0.52 0.54 0.38 0.47 0.54 0.49 0.50 0.52 0.53 0.58 0.62 0.60 0.63 0.66 0.76 0.79 0.79 0.82 0.92 1.08 1.27 1.34 1.46 1.62 1.79 1.93 1.94 1.80 1.66 1.55 1.48 1.43 1.38 1.30
0.85 0.68 0.56 0.49 0.46 0.41 0.41 0.52 0.68 0.77 0.67 0.46 0.31 0.36 0.50 0.46 0.46 0.51 0.58 0.63 0.63 0.61 0.59 0.63 0.66 0.66 0.65 0.69 0.79 0.90 0.99 1.06 1.17 1.31 1.49 1.66 1.78 1.77 1.68 1.60 1.48 1.37 1.28 1.21
0.83 0.93 0.55 0.44 0.43 0.41 0.35 0.41 0.53 0.52 0.34 0.27 0.21 0.31 0.46 0.47 0.50 0.50 0.56 0.55 0.54 0.53 0.56 0.64 0.71 0.68 0.65 0.66 0.67 0.70 0.78 0.90 0.98 1.07 1.23 1.35 1.41 1.44 1.40 1.38 1.36 1.30 1.23 1.19
0.45 0.58 0.38 0.28 0.24 0.26 0.33 0.29 0.24 0.40 0.28 0.21 0.22 0.28 0.40 0.45 0.47 0.48 0.51 0.46 0.43 0.42 0.50 0.60 0.63 0.61 0.58 0.57 0.56 0.58 0.64 0.73 0.78 0.83 0.93 0.97 1.03 1.07 1.11 1.12 1.12 1.12 1.14 1.19
0.23 0.36 0.31 0.23 0.22 0.20 0.19 0.16 0.23 0.45 0.39 0.24 0.18 0.21 0.40 0.44 0.44 0.43 0.42 0.39 0.36 0.39 0.45 0.47 0.46 0.43 0.44 0.47 0.50 0.49 0.51 0.57 0.58 0.60 0.65 0.67 0.70 0.76 0.84 0.91 0.89 0.86 0.90 0.96
0.13 0.23 0.27 0.22 0.25 0.18 0.13 0.16 0.22 0.30 0.27 0.21 0.14 0.22 0.29 0.34 0.36 0.35 0.34 0.34 0.33 0.36 0.35 0.34 0.32 0.32 0.34 0.37 0.37 0.35 0.38 0.46 0.47 0.43 0.43 0.46 0.49 0.54 0.62 0.73 0.79 0.80 0.80 0.77
0.10 0.16 0.21 0.17 0.09 0.06 0.07 0.10 0.18 0.30 0.21 0.17 0.13 0.20 0.22 0.24 0.26 0.25 0.25 0.27 0.27 0.28 0.28 0.29 0.27 0.27 0.27 0.28 0.28 0.30 0.34 0.36 0.36 0.33 0.33 0.35 0.36 0.38 0.43 0.52 0.60 0.64 0.69 0.71
0.09 0.13 0.21 0.21 0.15 0.10 0.10 0.10 0.13 0.26 0.41 0.26 0.18 0.21 0.22 0.21 0.21 0.20 0.21 0.23 0.23 0.21 0.19 0.18 0.17 0.17 0.17 0.20 0.24 0.26 0.26 0.24 0.23 0.24 0.24 0.26 0.27 0.27 0.29 0.33 0.38 0.42 0.47 0.55
0.14 0.09 0.11 0.14 0.11 0.16 0.19 0.10 0.14 0.45 0.55 0.18 0.08 0.14 0.16 0.15 0.16 0.19 0.22 0.20 0.18 0.16 0.13 0.10 0.08 0.07 0.08 0.13 0.17 0.18 0.16 0.15 0.18 0.19 0.19 0.20 0.20 0.20 0.21 0.21 0.24 0.26 0.28 0.32
0.12 0.10 0.06 0.05 0.08 0.20 0.21 0.13 0.16 0.29 0.20 0.15 0.07 0.07 0.09 0.10 0.12 0.16 0.17 0.14 0.10 0.08 0.06 0.04 0.04 0.05 0.06 0.09 0.12 0.14 0.15 0.17 0.20 0.18 0.16 0.15 0.15 0.16 0.17 0.16 0.15 0.14 0.13 0.14
0.11 0.11 0.07 0.07 0.06 0.12 0.15 0.09 0.08 0.08 0.06 0.05 0.04 0.05 0.05 0.08 0.13 0.16 0.14 0.10 0.08 0.06 0.04 0.03 0.02 0.03 0.03 0.07 0.15 0.20 0.23 0.24 0.21 0.18 0.16 0.15 0.16 0.17 0.17 0.15 0.11 0.10 0.10 0.11
0.06 0.08 0.14 0.08 0.03 0.10 0.12 0.07 0.06 0.04 0.02 0.04 0.05 0.04 0.06 0.13 0.19 0.21 0.15 0.08 0.05 0.03 0.03 0.02 0.01 0.01 0.04 0.11 0.24 0.37 0.43 0.38 0.31 0.27 0.22 0.20 0.20 0.20 0.20 0.19 0.19 0.18 0.17 0.18
0.04 0.08 0.17 0.11 0.07 0.17 0.12 0.06 0.03 0.02 0.02 0.04 0.04 0.04 0.07 0.10 0.15 0.15 0.09 0.04 0.02 0.02 0.01 0.01 0.01 0.03 0.06 0.14 0.27 0.37 0.44 0.48 0.43 0.39 0.37 0.33 0.34 0.36 0.38 0.40 0.39 0.37 0.37 0.36
0.03 0.10 0.20 0.15 0.11 0.07 0.03 0.02 0.03 0.02 0.02 0.03 0.04 0.02 0.03 0.04 0.09 0.09 0.06 0.03 0.02 0.01 0.01 0.01 0.01 0.03 0.07 0.14 0.22 0.32 0.41 0.47 0.51 0.57 0.61 0.60 0.59 0.62 0.66 0.71 0.72 0.68 0.65 0.63
0.03 0.08 0.21 0.17 0.12 0.03 0.01 0.01 0.01 0.02 0.04 0.01 0.02 0.02 0.01 0.02 0.07 0.08 0.07 0.05 0.04 0.03 0.03 0.03 0.03 0.05 0.10 0.17 0.28 0.45 0.56 0.62 0.64 0.71 0.76 0.73 0.72 0.73 0.73 0.74 0.74 0.70 0.64 0.61
0.07 0.12 0.18 0.16 0.12 0.02 0.01 0.01 0.01 0.03 0.04 0.01 0.02 0.02 0.03 0.04 0.05 0.04 0.06 0.08 0.09 0.09 0.10 0.12 0.14 0.18 0.25 0.34 0.48 0.70 0.82 0.77 0.71 0.70 0.66 0.60 0.56 0.51 0.48 0.46 0.43 0.41 0.37 0.34
0.02 0.05 0.06 0.06 0.07 0.03 0.01 0.01 0.01 0.02 0.01 0.01 0.02 0.03 0.04 0.03 0.03 0.03 0.04 0.06 0.11 0.14 0.15 0.18 0.24 0.30 0.36 0.40 0.46 0.56 0.59 0.54 0.48 0.43 0.36 0.30 0.28 0.25 0.23 0.21 0.20 0.18 0.16 0.14
0.02 0.03 0.03 0.03 0.04 0.02 0.01 0.01 0.01 0.01 0.01 0.01 0.03 0.04 0.04 0.03 0.02 0.03 0.03 0.04 0.05 0.08 0.08 0.09 0.11 0.12 0.15 0.17 0.19 0.20 0.19 0.16 0.14 0.12 0.10 0.08 0.08 0.08 0.07 0.07 0.06 0.05 0.04 0.03
0.03 0.02 0.03 0.02 0.02 0.02 0.01 0.01 0.01 0.01 0.01 0.01 0.03 0.03 0.03 0.04 0.03 0.03 0.03 0.03 0.04 0.04 0.04 0.04 0.04 0.04 0.04 0.04 0.05 0.04 0.04 0.04 0.03 0.03 0.03 0.03 0.03 0.03 0.04 0.04 0.04 0.04 0.04 0.04
0.04 0.03 0.04 0.03 0.02 0.02 0.01 0.01 0.01 0.01 0.01 0.01 0.01 0.01 0.02 0.02 0.03 0.04 0.04 0.04 0.04 0.04 0.04 0.04 0.04 0.04 0.04 0.04 0.04 0.04 0.04 0.04 0.04 0.04 0.05 0.05 0.05 0.05 0.05 0.06 0.07 0.08 0.07 0.08
0.02 0.03 0.04 0.04 0.01 0.01 0.00 0.00 0.00 0.01 0.01 0.01 0.01 0.01 0.02 0.02 0.02 0.03 0.03 0.03 0.03 0.04 0.04 0.05 0.05 0.05 0.05 0.05 0.06 0.06 0.06 0.07 0.07 0.07 0.07 0.09 0.10 0.10 0.10 0.11 0.11 0.13 0.13 0.14